Showing default

EDISON-1, 62610

Orbit data source: Space-Track

EDISON-1, 62610 is a Danish payload satellite in SSO that was launched on Tue, 14 Jan 2025 UTC via an FALCON 9 launch vehicle from the Air Force Western Test Range (AFWTR). Payload-class satellites include a variety of spacecraft equipped with specific instruments for various scientific and technological missions. These include communications satellites like Starlink; space stations such as the ISS; scientific satellites like the Hubble; Earth observation satellites from companies like Planet Labs, Umbra, and HawkEye 360; GPS; miniature CubeSats for education and research; and military/defense satellites.

Loading next visibility...
Identifier
62610, 2025-009B
Orbit
SSO
Country
Flag of DKDK / DEN
Related business
Manufacturer
Space Inventor
Mission
Operational Commercial Technology
Bus & Motor
CUBESAT 8U, Unknown motor
Mass
~15 kg wet, ~15 kg dry
Launch date (UTC)
2025-01-14 (1 year ago)
Launch vehicle
FALCON 9
Launch site
Air Force Western Test Range (AFWTR)
Object type
Payload
Rocket body
Debris
Shape & HBR
Box + 1 Pan, 0.3 m
Radar Cross Section
0.180 m², Medium (>0.1 m² and < 1m²)

Expand to show TLE details & history
Last TLE update: 9 hours ago

TLE from 9 hours ago
0 EDISON-1
1 62610U 25009B   26126.16503516  .00012770  00000-0  43330-3 0  9998
2 62610  97.3999 208.7709 0006951  99.9378 260.2648 15.30629174 72524
Epoch: 2026-05-06T03:57Z
TLE epoch observation values (Epoch: 2026-05-06T03:57:39.037Z)
Latitude
-0.00002°
Longitude
-74.6712°
Altitude
477.848 km
Speed
7.626 km/s
True Right ascension
13h 55m 05s
True Declination
0° 00' 00"
Sunlit
Object was in full shadow at epoch
Visualization orbit readout
Latitude
Unknown
Longitude
Unknown
Altitude
Unknown
Speed
Unknown
Apparent Right ascension
Unknown
Apparent Declination
Unknown
Sunlit
N/A
Visualization observer readout
Local Sidereal Time
20:30:06
Azimuth
Unknown
Elevation
Unknown
Doppler factor
Unknown
Orbital elements
Apogee altitude
475.646 km
Perigee altitude
466.125 km
Semi-major axis
6,849.022 km
Eccentricity
0.0007
Inclination
97.3999°
RAAN
208.7709°
Arg. of periapsis
99.9378°
True anomaly
260.18631°
Mean anomaly
260.2648°
Eccentric anomaly
260.22555°
Mean motion
3.82913 °/min
Orbital period
94.02 mins
BSTAR
0.0004333
Loading maneuver chart data...
Computing Atmospheric mass density...
Loading historical data...
Loading historical data...
Loading historical data...
Loading historical data...
Loading historical data...
Loading historical data...
Loading historical data...

Documentation

Showing up to 5 results
|